Date String (YYYY-MM-DD hh:mm:ss) UTC,Instrument flags,absolute air pressure of the measurement (hPa),sample flow rate (lpm),inlet stack bypass flow (lpm),air temperature of the measurement (°C),ambient temperature measured by the external sensor (°C),aerosol sample conditioner tube jacket temperature (°C),OPC LED temperature (°C),internal box temperature (°C),relative humidity of the measurement (%),span deviation,mass concentration of particles derived from Lorenz-Mie calculation of OPC scattering (μg/m³),mass concentration of particles derived from Lorenz-Mie calculation of OPC scattering (μg/m³),mass concentration of particles derived from Lorenz-Mie calculation of OPC scattering (μg/m³)
DateTimeUTC,F1_M11,P_M11,Q1_M11,Q2_M11,T1_M11,T2_M11,T3_M11,T4_M11,T5_M11,U1_M11,ZSPAN_M11,X0_M11,X2_M11,X1_M11
2024-02-21 00:00:00,SystemResetWarning,0828.4,5.01,000.00,024.8,023.7,000.0,033.4,026.6,15.1,0000.0,0001.00,0000.64,0000.47
2024-02-21 00:01:00,SystemResetWarning,0828.4,5.00,000.00,024.8,023.8,000.0,033.3,026.6,15.1,0000.0,0001.04,0000.68,0000.48
2024-02-21 00:02:00,SystemResetWarning,0828.3,5.00,000.00,024.8,023.9,000.0,033.3,026.6,14.9,0000.0,0001.09,0000.70,0000.48
2024-02-21 00:03:00,SystemResetWarning,0828.4,5.01,000.00,024.9,024.0,000.0,033.3,026.7,14.8,0000.0,0001.08,0000.69,0000.47
2024-02-21 00:04:00,SystemResetWarning,0828.4,5.00,000.00,024.9,024.1,000.0,033.3,026.7,14.9,0000.0,0001.06,0000.68,0000.47
2024-02-21 00:05:00,SystemResetWarning,0828.3,5.00,000.00,024.9,024.2,000.0,033.3,026.8,14.6,0000.0,0001.02,0000.66,0000.46
2024-02-21 00:06:00,SystemResetWarning,0828.3,5.00,000.00,025.0,024.3,000.0,033.3,026.8,14.5,0000.0,0000.94,0000.63,0000.45
2024-02-21 00:07:00,SystemResetWarning,0828.4,5.00,000.00,025.0,024.3,000.0,033.3,026.8,14.6,0000.0,0000.92,0000.62,0000.45
2024-02-21 00:08:00,SystemResetWarning,0828.4,5.00,000.00,025.0,024.4,000.0,033.3,026.9,14.6,0000.0,0000.96,0000.63,0000.44
2024-02-21 00:09:00,SystemResetWarning,0828.3,5.00,000.00,025.0,024.4,000.0,033.3,026.9,14.5,0000.0,0000.96,0000.62,0000.43
2024-02-21 00:10:00,SystemResetWarning,0828.4,5.00,000.00,025.1,024.5,000.0,033.4,026.9,14.4,0000.0,0000.94,0000.61,0000.42
2024-02-21 00:11:00,SystemResetWarning,0828.3,5.00,000.00,025.1,024.5,000.0,033.4,027.0,14.3,0000.0,0000.94,0000.60,0000.41
2024-02-21 00:12:00,SystemResetWarning,0828.4,5.00,000.00,025.1,024.6,000.0,033.4,027.0,14.3,0000.0,0000.91,0000.55,0000.39
2024-02-21 00:13:00,SystemResetWarning,0828.4,5.00,000.00,025.1,024.6,000.0,033.4,027.0,14.4,0000.0,0000.88,0000.52,0000.38
2024-02-21 00:14:00,SystemResetWarning,0828.4,5.00,000.00,025.2,024.6,000.0,033.4,027.1,14.4,0000.0,0000.79,0000.48,0000.36
2024-02-21 00:15:00,SystemResetWarning,0828.4,5.00,000.00,025.2,024.6,000.0,033.4,027.1,14.4,0000.0,0000.79,0000.47,0000.35
2024-02-21 00:16:00,SystemResetWarning,0828.4,5.00,000.00,025.2,024.7,000.0,033.5,027.1,14.3,0000.0,0000.79,0000.46,0000.34
2024-02-21 00:17:00,SystemResetWarning,0828.4,5.00,000.00,025.2,024.7,000.0,033.5,027.1,14.2,0000.0,0000.79,0000.47,0000.33
2024-02-21 00:18:00,SystemResetWarning,0828.4,5.00,000.00,025.3,024.7,000.0,033.5,027.1,14.2,0000.0,0000.77,0000.46,0000.32
2024-02-21 00:19:00,SystemResetWarning,0828.4,5.00,000.00,025.3,024.7,000.0,033.5,027.2,14.3,0000.0,0000.71,0000.44,0000.31
2024-02-21 00:20:00,SystemResetWarning,0828.4,5.01,000.00,025.3,024.8,000.0,033.5,027.2,14.3,0000.0,0000.73,0000.43,0000.30
2024-02-21 00:21:00,SystemResetWarning,0828.4,5.00,000.00,025.3,024.8,000.0,033.5,027.2,14.2,0000.0,0000.80,0000.43,0000.29
2024-02-21 00:22:00,SystemResetWarning,0828.5,5.00,000.00,025.4,024.8,000.0,033.6,027.2,14.2,0000.0,0000.82,0000.43,0000.29
2024-02-21 00:23:00,SystemResetWarning,0828.4,5.00,000.00,025.4,024.8,000.0,033.6,027.2,14.1,0000.0,0000.79,0000.43,0000.29
2024-02-21 00:24:00,SystemResetWarning,0828.5,5.00,000.00,025.4,024.8,000.0,033.6,027.3,14.2,0000.0,0000.78,0000.44,0000.29
2024-02-21 00:25:00,SystemResetWarning,0828.6,5.00,000.00,025.4,024.9,000.0,033.6,027.3,14.3,0000.0,0000.88,0000.47,0000.29
2024-02-21 00:26:00,SystemResetWarning,0828.6,5.00,000.00,025.4,024.9,000.0,033.7,027.3,14.3,0000.0,0000.89,0000.48,0000.28
2024-02-21 00:27:00,SystemResetWarning,0828.5,5.00,000.00,025.4,024.9,000.0,033.7,027.3,14.3,0000.0,0000.95,0000.50,0000.28
2024-02-21 00:28:00,SystemResetWarning,0828.4,5.00,000.00,025.5,024.9,000.0,033.7,027.3,14.2,0000.0,0001.05,0000.51,0000.28
2024-02-21 00:29:00,SystemResetWarning,0828.4,5.00,000.00,025.5,024.9,000.0,033.7,027.3,14.2,0000.0,0001.04,0000.50,0000.29
2024-02-21 00:30:00,SystemResetWarning,0828.4,5.00,000.00,025.5,024.9,000.0,033.7,027.3,14.2,0000.0,0001.03,0000.49,0000.29
2024-02-21 00:31:00,SystemResetWarning,0828.4,5.00,000.00,025.5,024.9,000.0,033.7,027.4,14.2,0000.0,0001.09,0000.49,0000.29
2024-02-21 00:32:00,SystemResetWarning,0828.5,4.98,000.00,025.5,024.9,000.0,033.8,027.4,14.2,0000.0,0000.97,0000.46,0000.29
2024-02-21 00:33:00,SystemResetWarning,0828.4,4.99,000.00,025.5,025.0,000.0,033.8,027.4,14.2,0000.0,0000.94,0000.46,0000.29
2024-02-21 00:34:00,SystemResetWarning,0828.4,5.01,000.00,025.5,025.0,000.0,033.8,027.4,14.1,0000.0,0000.90,0000.44,0000.29
2024-02-21 00:35:00,SystemResetWarning,0828.5,5.01,000.00,025.6,025.0,000.0,033.8,027.4,14.1,0000.0,0000.90,0000.45,0000.29
2024-02-21 00:36:00,SystemResetWarning,0828.5,5.00,000.00,025.6,025.0,000.0,033.8,027.5,14.2,0000.0,0000.85,0000.43,0000.28
2024-02-21 00:37:00,SystemResetWarning,0828.6,5.00,000.00,025.6,025.0,000.0,033.9,027.5,14.2,0000.0,0000.88,0000.44,0000.29
2024-02-21 00:38:00,SystemResetWarning,0828.6,4.99,000.00,025.6,025.0,000.0,033.9,027.5,14.2,0000.0,0000.83,0000.42,0000.29
2024-02-21 00:39:00,SystemResetWarning,0828.6,4.99,000.00,025.6,025.1,000.0,033.9,027.5,14.2,0000.0,0000.74,0000.41,0000.29
2024-02-21 00:40:00,SystemResetWarning,0828.6,4.99,000.00,025.7,025.1,000.0,033.9,027.5,14.2,0000.0,0000.79,0000.42,0000.29
2024-02-21 00:41:00,SystemResetWarning,0828.6,5.01,000.00,025.7,025.1,000.0,033.9,027.5,14.2,0000.0,0000.84,0000.45,0000.30
2024-02-21 00:42:00,SystemResetWarning,0828.6,5.01,000.00,025.7,025.1,000.0,033.9,027.5,14.2,0000.0,0000.74,0000.45,0000.30
2024-02-21 00:43:00,SystemResetWarning,0828.5,5.00,000.00,025.7,025.1,000.0,034.0,027.5,14.2,0000.0,0000.75,0000.45,0000.31
2024-02-21 00:44:00,SystemResetWarning,0828.6,5.00,000.00,025.7,025.1,000.0,034.0,027.5,14.3,0000.0,0000.76,0000.45,0000.31
2024-02-21 00:45:00,SystemResetWarning,0828.6,4.99,000.00,025.7,025.1,000.0,034.0,027.5,14.3,0000.0,0000.82,0000.46,0000.31
2024-02-21 00:46:00,SystemResetWarning,0828.6,4.99,000.00,025.7,025.1,000.0,034.0,027.5,14.3,0000.0,0001.40,0000.47,0000.31
2024-02-21 00:47:00,SystemResetWarning,0828.6,5.00,000.00,025.7,025.1,000.0,034.0,027.5,14.3,0000.0,0001.86,0000.46,0000.32
2024-02-21 00:48:00,SystemResetWarning,0828.6,5.01,000.00,025.7,025.1,000.0,034.0,027.5,14.3,0000.0,0001.83,0000.45,0000.32
2024-02-21 00:49:00,SystemResetWarning,0828.6,5.01,000.00,025.7,025.1,000.0,034.0,027.5,14.2,0000.0,0001.81,0000.44,0000.32
2024-02-21 00:50:00,SystemResetWarning,0828.6,5.00,000.00,025.7,025.0,000.0,034.0,027.5,14.3,0000.0,0001.81,0000.45,0000.33
2024-02-21 00:51:00,SystemResetWarning,0828.6,5.00,000.00,025.7,025.1,000.0,034.1,027.5,14.3,0000.0,0001.88,0000.45,0000.33
2024-02-21 00:52:00,SystemResetWarning,0828.5,4.98,000.00,025.7,025.1,000.0,034.1,027.6,14.2,0000.0,0001.84,0000.45,0000.33
2024-02-21 00:53:00,SystemResetWarning,0828.6,5.00,000.00,025.7,025.1,000.0,034.1,027.6,14.1,0000.0,0001.94,0000.45,0000.33
2024-02-21 00:54:00,SystemResetWarning,0828.6,5.01,000.00,025.7,025.1,000.0,034.1,027.6,14.1,0000.0,0002.05,0000.45,0000.33
2024-02-21 00:55:00,SystemResetWarning,0828.6,5.00,000.00,025.7,025.1,000.0,034.1,027.6,14.1,0000.0,0002.20,0000.45,0000.33
2024-02-21 00:56:00,SystemResetWarning,0828.6,4.99,000.00,025.8,025.1,000.0,034.1,027.6,14.1,0000.0,0002.24,0000.45,0000.34
2024-02-21 00:57:00,SystemResetWarning,0828.6,4.98,000.00,025.8,025.1,000.0,034.1,027.6,14.1,0000.0,0001.82,0000.45,0000.34
2024-02-21 00:58:00,SystemResetWarning,0828.6,5.00,000.00,025.8,025.1,000.0,034.1,027.6,14.2,0000.0,0001.12,0000.44,0000.34
2024-02-21 00:59:00,SystemResetWarning,0828.6,5.01,000.00,025.8,025.1,000.0,034.1,027.6,14.3,0000.0,0001.17,0000.46,0000.34
